�N����,����,�~����,�C��,���x,�C��,����,���ϕ���,�ő�u�ԕ���,�ő厞����,���˗�,�I�_���x,�n�����x,�ő啗���N��,DTYPE
"23/10/24","00:10",0.0,12.9,88.1,1016.8,303.3,1.7,2.2,323.2,0.00,11.0,16.6,"00:01:40",1
"23/10/24","00:20",0.0,12.6,88.4,1016.8,297.7,1.7,2.4,303.8,0.00,10.8,16.4,"00:18:38",1
"23/10/24","00:30",0.0,12.4,88.9,1017.1,307.3,2.0,2.7,312.3,0.00,10.7,16.5,"00:23:00",1
"23/10/24","00:40",0.0,12.3,89.2,1017.3,293.6,1.7,2.1,296.3,0.00,10.6,16.3,"00:36:20",1
"23/10/24","00:50",0.0,12.1,89.6,1017.1,294.4,1.7,2.2,273.2,0.00,10.5,16.5,"00:41:34",1
"23/10/24","01:00",0.0,11.7,89.8,1017.3,305.8,1.3,1.8,310.5,0.00,10.1,16.4,"00:51:54",1
"23/10/24","01:10",0.0,11.3,90.2,1016.8,304.7,1.7,2.1,322.6,0.00,9.8,16.2,"01:08:02",1
"23/10/24","01:20",0.0,11.1,90.6,1017.3,310.5,2.0,2.2,322.0,0.00,9.7,16.2,"01:18:16",1
"23/10/24","01:30",0.0,11.1,91.0,1017.1,294.4,1.6,2.0,306.3,0.00,9.7,16.2,"01:21:28",1
"23/10/24","01:40",0.0,11.1,91.2,1016.6,304.4,1.7,2.0,319.4,0.00,9.8,15.8,"01:31:40",1
"23/10/24","01:50",0.0,10.7,91.4,1016.8,311.5,2.0,2.2,316.1,0.00,9.4,16.1,"01:43:20",1
"23/10/24","02:00",0.0,10.4,91.8,1016.6,305.6,1.7,2.0,315.2,0.00,9.2,16.0,"01:52:16",1
"23/10/24","02:10",0.0,10.4,92.2,1016.8,304.8,1.7,2.4,321.9,0.00,9.2,15.9,"02:08:44",1
"23/10/24","02:20",0.0,10.4,92.4,1016.6,312.7,2.0,2.5,321.3,0.00,9.3,15.8,"02:18:40",1
"23/10/24","02:30",0.0,10.7,92.8,1016.8,304.1,2.1,2.5,313.0,0.00,9.6,16.0,"02:24:56",1
"23/10/24","02:40",0.0,11.0,93.0,1016.4,303.8,2.0,3.1,320.6,0.00,10.0,15.8,"02:37:38",1
"23/10/24","02:50",0.0,11.1,93.1,1016.4,304.4,2.0,2.9,314.0,0.00,10.1,15.7,"02:40:08",1
"23/10/24","03:00",0.0,11.0,93.4,1016.6,316.0,2.0,2.5,325.7,0.00,10.0,15.8,"02:56:32",1
"23/10/24","03:10",0.0,10.4,93.7,1016.6,314.3,2.3,2.7,322.9,0.00,9.5,16.1,"03:00:48",1
"23/10/24","03:20",0.0,9.9,94.0,1016.4,312.1,2.1,2.6,318.3,0.00,9.0,15.6,"03:10:16",1
"23/10/24","03:30",0.0,9.8,94.3,1016.6,304.5,1.6,2.0,311.0,0.00,9.0,15.8,"03:22:24",1
"23/10/24","03:40",0.0,9.5,94.5,1016.1,297.3,0.8,1.3,279.7,0.00,8.7,15.5,"03:36:24",1
"23/10/24","03:50",0.0,9.4,94.8,1016.6,308.1,1.8,2.4,319.8,0.00,8.6,15.7,"03:49:28",1
"23/10/24","04:00",0.0,9.3,94.9,1016.4,301.2,1.7,2.4,315.7,0.00,8.6,15.4,"03:50:08",1
"23/10/24","04:10",0.0,9.1,95.0,1016.6,305.1,1.6,2.0,314.7,0.00,8.4,15.4,"04:07:20",1
"23/10/24","04:20",0.0,9.0,95.2,1016.6,300.9,1.8,2.5,315.6,0.00,8.3,15.4,"04:16:00",1
"23/10/24","04:30",0.0,9.1,95.3,1017.1,306.9,1.5,2.2,316.6,0.00,8.4,15.4,"04:21:28",1
"23/10/24","04:40",0.0,9.1,95.5,1017.1,297.3,1.5,1.9,312.6,0.00,8.5,15.4,"04:32:48",1
"23/10/24","04:50",0.0,9.1,95.5,1017.1,297.8,1.3,1.7,290.1,0.00,8.5,15.4,"04:40:32",1
"23/10/24","05:00",0.0,9.0,95.7,1016.8,300.9,1.6,2.1,316.5,0.00,8.4,15.5,"04:57:04",1
"23/10/24","05:10",0.0,8.9,95.7,1016.6,299.6,1.7,2.0,306.8,0.00,8.3,15.4,"05:02:32",1
"23/10/24","05:20",0.0,8.8,95.9,1016.6,295.8,1.3,2.0,315.2,0.00,8.2,15.2,"05:19:28",1
"23/10/24","05:30",0.0,8.8,96.0,1016.4,300.6,1.5,2.2,317.4,0.00,8.2,15.1,"05:29:28",1
"23/10/24","05:40",0.0,8.8,96.1,1016.4,305.6,1.6,2.0,314.6,0.00,8.3,15.3,"05:31:20",1
"23/10/24","05:50",0.0,8.7,96.1,1016.6,294.5,1.3,1.8,310.2,0.00,8.2,15.2,"05:40:40",1
"23/10/24","06:00",0.0,8.7,96.3,1016.8,295.1,1.3,2.1,306.4,0.00,8.2,14.9,"05:56:38",1
"23/10/24","06:10",0.0,9.1,96.4,1016.6,300.1,1.2,2.5,311.0,0.00,8.6,15.1,"06:04:50",1
"23/10/24","06:20",0.0,8.8,96.3,1016.8,288.8,0.8,1.2,294.7,0.00,8.3,15.0,"06:15:58",1
"23/10/24","06:30",0.0,8.6,96.5,1017.1,296.5,1.3,1.7,307.1,0.00,8.1,14.8,"06:29:58",1
"23/10/24","06:40",0.0,9.0,96.8,1016.8,313.9,1.3,1.9,316.6,0.00,8.6,14.9,"06:39:28",1
"23/10/24","06:50",0.0,9.4,96.6,1017.5,298.9,1.2,1.6,315.2,0.00,8.9,15.1,"06:40:16",1
"23/10/24","07:00",0.0,10.0,96.7,1017.3,293.4,1.2,1.8,312.4,0.01,9.5,14.8,"06:58:40",1
"23/10/24","07:10",0.0,10.9,96.6,1017.5,295.1,0.8,1.9,308.9,0.02,10.4,14.9,"07:02:28",1
"23/10/24","07:20",0.0,11.7,96.4,1017.8,275.5,0.3,1.1,320.6,0.03,11.2,14.8,"07:15:04",1
"23/10/24","07:30",0.0,12.2,96.3,1017.8,291.0,0.1,0.6,306.4,0.05,11.7,14.8,"07:25:44",1
"23/10/24","07:40",0.0,12.9,96.3,1017.8,317.3,0.3,1.0,322.0,0.06,12.4,14.8,"07:34:22",1
"23/10/24","07:50",0.0,13.5,96.2,1017.8,295.5,0.6,1.1,330.4,0.08,12.9,14.8,"07:40:16",1
"23/10/24","08:00",0.0,13.6,95.5,1018.0,245.4,0.2,0.5,138.6,0.10,12.9,15.0,"07:50:56",1
"23/10/24","08:10",0.0,14.6,95.9,1018.0,213.8,0.3,0.8,252.2,0.12,14.0,14.7,"08:03:12",1
"23/10/24","08:20",0.0,15.1,95.3,1017.8,303.9,0.3,1.1,316.8,0.14,14.4,14.8,"08:13:12",1
"23/10/24","08:30",0.0,15.2,94.2,1018.2,267.6,0.5,1.1,310.1,0.16,14.3,15.0,"08:24:32",1
"23/10/24","08:40",0.0,16.0,94.2,1018.0,335.1,0.5,1.3,328.1,0.19,15.1,14.8,"08:37:36",1
"23/10/24","08:50",0.0,16.2,92.6,1018.0,109.8,0.3,0.9,340.5,0.21,15.0,14.9,"08:41:04",1
"23/10/24","09:00",0.0,16.5,91.6,1018.2,266.5,0.6,1.4,261.3,0.23,15.2,14.8,"08:58:16",1
"23/10/24","09:10",0.0,17.3,89.2,1018.2,286.7,0.5,1.2,314.1,0.26,15.5,15.1,"09:00:40",1
"23/10/24","09:20",0.0,17.4,84.8,1018.2,233.4,1.0,1.9,248.4,0.28,14.9,15.1,"09:14:32",1
"23/10/24","09:30",0.0,18.5,80.2,1017.8,347.5,0.6,1.1,37.4,0.29,15.1,15.1,"09:20:02",1
"23/10/24","09:40",0.0,19.6,75.8,1017.5,350.2,0.5,1.3,31.8,0.31,15.3,15.1,"09:30:08",1
"23/10/24","09:50",0.0,20.2,72.8,1017.8,196.7,0.3,1.0,215.8,0.33,15.2,15.3,"09:49:04",1
"23/10/24","10:00",0.0,20.2,68.7,1017.5,241.5,0.7,2.8,199.9,0.34,14.3,15.5,"09:57:36",1
"23/10/24","10:10",0.0,20.9,66.8,1017.1,218.4,0.8,2.0,239.5,0.36,14.5,15.4,"10:00:48",1
"23/10/24","10:20",0.0,21.5,65.8,1017.1,136.8,0.7,2.2,129.6,0.37,14.9,15.6,"10:16:00",1
"23/10/24","10:30",0.0,21.9,63.0,1016.4,127.2,0.7,1.9,105.8,0.38,14.6,15.6,"10:27:44",1
"23/10/24","10:40",0.0,21.7,60.4,1016.4,130.4,0.8,1.9,122.4,0.36,13.7,15.7,"10:37:20",1
"23/10/24","10:50",0.0,21.9,60.3,1016.4,170.5,1.1,2.7,140.8,0.41,13.9,15.9,"10:44:48",1
"23/10/24","11:00",0.0,22.3,59.2,1015.9,150.5,0.8,2.1,173.1,0.38,14.0,15.9,"10:59:12",1
"23/10/24","11:10",0.0,22.4,58.7,1015.9,189.6,1.2,2.9,193.4,0.43,14.0,16.0,"11:04:40",1
"23/10/24","11:20",0.0,22.2,57.3,1015.4,201.3,0.8,2.0,184.2,0.31,13.4,16.1,"11:10:40",1
"23/10/24","11:30",0.0,22.4,56.1,1014.9,206.7,1.6,3.3,235.7,0.44,13.3,16.3,"11:24:16",1
"23/10/24","11:40",0.0,22.6,56.4,1014.9,155.7,0.8,2.6,126.4,0.30,13.5,16.5,"11:37:04",1
"23/10/24","11:50",0.0,22.8,55.6,1014.5,185.4,0.8,2.0,82.5,0.29,13.5,16.5,"11:42:00",1
"23/10/24","12:00",0.0,22.7,56.6,1014.2,175.3,1.0,2.1,221.3,0.30,13.7,16.6,"11:54:24",1
"23/10/24","12:10",0.0,22.8,54.1,1014.2,218.3,1.8,3.9,200.6,0.43,13.1,16.7,"12:04:08",1
"23/10/24","12:20",0.0,22.7,54.7,1013.8,232.9,1.3,2.7,240.5,0.32,13.2,16.8,"12:11:04",1
"23/10/24","12:30",0.0,23.2,54.0,1013.3,208.2,1.0,1.9,169.5,0.31,13.4,16.8,"12:20:08",1
"23/10/24","12:40",0.0,22.5,55.2,1012.8,149.7,0.7,1.6,203.0,0.12,13.1,16.7,"12:30:48",1
"23/10/24","12:50",0.0,22.4,55.7,1013.3,127.0,0.3,1.7,123.8,0.15,13.2,17.0,"12:47:04",1
"23/10/24","13:00",0.0,23.5,53.4,1012.8,207.0,1.1,2.6,228.1,0.38,13.5,17.0,"12:59:36",1
"23/10/24","13:10",0.0,23.7,51.2,1012.6,219.5,1.1,2.6,234.7,0.29,13.1,17.0,"13:00:08",1
"23/10/24","13:20",0.0,23.2,53.9,1012.1,244.2,0.6,1.3,335.3,0.13,13.4,17.2,"13:12:40",1
"23/10/24","13:30",0.0,23.5,50.4,1012.3,354.9,1.0,2.0,339.2,0.24,12.6,17.3,"13:25:36",1
"23/10/24","13:40",0.0,24.1,49.8,1012.1,344.1,1.1,2.0,325.8,0.32,13.0,17.2,"13:36:40",1
"23/10/24","13:50",0.0,24.4,48.9,1012.1,165.5,1.0,4.4,131.7,0.29,13.0,17.3,"13:48:24",1
"23/10/24","14:00",0.0,24.4,51.2,1011.6,201.0,1.0,2.6,217.2,0.33,13.7,17.4,"13:55:44",1
"23/10/24","14:10",0.0,23.8,49.4,1011.2,213.7,1.5,3.2,232.2,0.22,12.6,17.6,"14:07:44",1
"23/10/24","14:20",0.0,23.9,51.6,1011.6,231.8,1.1,2.2,216.3,0.21,13.4,17.7,"14:10:08",1
"23/10/24","14:30",0.0,25.1,46.6,1011.2,17.0,0.7,2.0,6.2,0.26,12.9,17.8,"14:27:36",1
"23/10/24","14:40",0.0,25.0,47.3,1011.4,156.7,0.8,3.3,156.4,0.26,13.1,17.9,"14:39:12",1
"23/10/24","14:50",0.0,24.6,47.8,1011.4,147.5,1.1,4.0,219.7,0.22,12.8,17.7,"14:43:52",1
"23/10/24","15:00",0.0,23.9,48.3,1011.4,196.5,1.3,2.7,214.6,0.15,12.4,17.8,"14:55:52",1
"23/10/24","15:10",0.0,23.2,49.7,1011.6,194.3,1.0,2.8,189.2,0.10,12.2,17.8,"15:09:04",1
"23/10/24","15:20",0.0,23.9,50.0,1011.4,219.1,1.5,3.1,227.8,0.16,12.9,18.0,"15:14:16",1
"23/10/24","15:30",0.0,23.2,51.2,1011.6,208.1,1.3,3.5,226.6,0.09,12.6,18.0,"15:20:16",1
"23/10/24","15:40",0.0,23.6,49.0,1011.4,209.5,0.8,2.2,230.6,0.11,12.3,17.9,"15:32:32",1
"23/10/24","15:50",0.0,23.4,51.2,1011.6,216.5,0.8,1.9,248.6,0.06,12.8,17.9,"15:40:56",1
"23/10/24","16:00",0.0,23.6,50.1,1011.6,230.4,0.6,1.7,241.4,0.05,12.6,18.0,"15:56:32",1
"23/10/24","16:10",0.0,23.0,51.4,1011.2,180.4,0.6,1.3,194.8,0.04,12.5,18.1,"16:00:40",1
"23/10/24","16:20",0.0,23.3,51.4,1011.4,174.9,0.2,1.0,187.6,0.03,12.8,17.8,"16:16:32",1
"23/10/24","16:30",0.0,23.1,52.5,1011.6,235.1,0.7,1.8,205.0,0.02,12.9,18.1,"16:24:48",1
"23/10/24","16:40",0.0,22.2,56.1,1011.6,296.3,1.1,2.4,238.5,0.00,13.1,17.9,"16:32:48",1
"23/10/24","16:50",0.0,21.1,60.5,1012.1,324.2,1.2,2.4,328.0,0.00,13.2,18.1,"16:46:56",1
"23/10/24","17:00",0.0,20.2,64.0,1011.6,308.2,1.1,1.7,344.0,0.00,13.2,17.8,"16:59:12",1
"23/10/24","17:10",0.0,19.5,66.2,1012.1,310.6,1.1,2.5,320.3,0.00,13.1,18.0,"17:01:28",1
"23/10/24","17:20",0.0,19.1,68.0,1012.3,297.6,1.1,2.4,335.0,0.00,13.1,17.9,"17:16:16",1
"23/10/24","17:30",0.0,18.6,69.1,1012.3,304.1,1.1,2.5,322.6,0.00,12.9,18.0,"17:20:48",1
"23/10/24","17:40",0.0,18.3,70.2,1012.3,289.1,1.1,2.0,332.8,0.00,12.8,17.9,"17:39:36",1
"23/10/24","17:50",0.0,18.0,71.0,1012.3,291.6,1.3,2.1,294.3,0.00,12.7,18.0,"17:46:48",1
"23/10/24","18:00",0.0,17.8,71.9,1012.3,305.0,1.5,2.6,303.8,0.00,12.7,17.9,"17:57:12",1
"23/10/24","18:10",0.0,17.5,72.7,1012.8,306.2,1.3,2.9,311.9,0.00,12.6,17.7,"18:06:24",1
"23/10/24","18:20",0.0,17.1,73.7,1012.8,302.4,1.2,1.9,323.8,0.00,12.4,17.7,"18:11:52",1
"23/10/24","18:30",0.0,16.7,74.8,1012.8,312.1,1.2,1.8,320.1,0.00,12.3,17.7,"18:26:28",1
"23/10/24","18:40",0.0,16.0,76.9,1013.0,299.0,1.0,1.7,318.5,0.00,12.0,17.5,"18:36:34",1
"23/10/24","18:50",0.0,15.7,79.1,1012.8,315.2,1.3,2.9,333.9,0.00,12.1,17.6,"18:47:00",1
"23/10/24","19:00",0.0,15.6,80.3,1013.0,286.7,1.1,1.6,300.3,0.00,12.3,17.6,"18:59:46",1
"23/10/24","19:10",0.0,15.6,80.8,1013.3,300.5,0.8,2.0,328.3,0.00,12.4,17.5,"19:01:52",1
"23/10/24","19:20",0.0,15.5,81.3,1013.0,298.0,1.3,2.1,323.1,0.00,12.4,17.5,"19:16:32",1
"23/10/24","19:30",0.0,15.4,81.5,1013.0,314.6,1.3,2.4,325.7,0.00,12.3,17.5,"19:23:08",1
"23/10/24","19:40",0.0,15.0,82.2,1013.0,307.2,1.5,1.8,311.1,0.00,12.0,17.5,"19:35:26",1
"23/10/24","19:50",0.0,14.7,83.0,1013.0,310.2,0.6,1.6,312.0,0.00,11.9,17.4,"19:40:48",1
"23/10/24","20:00",0.0,14.3,83.7,1013.5,296.0,1.0,1.4,317.8,0.00,11.6,17.4,"19:59:52",1
"23/10/24","20:10",0.0,14.2,84.7,1013.0,311.3,1.5,2.0,320.6,0.00,11.7,17.1,"20:06:40",1
"23/10/24","20:20",0.0,13.9,85.4,1013.0,304.3,1.3,1.6,312.6,0.00,11.5,17.2,"20:10:08",1
"23/10/24","20:30",0.0,13.9,86.4,1013.8,288.9,1.1,1.9,305.3,0.00,11.7,17.1,"20:27:20",1
"23/10/24","20:40",0.0,14.3,86.8,1013.5,283.7,1.3,2.1,321.6,0.00,12.2,17.0,"20:34:56",1
"23/10/24","20:50",0.0,14.4,86.7,1013.5,294.9,1.2,1.9,323.0,0.00,12.3,17.0,"20:48:24",1
"23/10/24","21:00",0.0,14.4,86.5,1013.5,300.7,1.3,2.0,310.2,0.00,12.2,17.0,"20:50:08",1
"23/10/24","21:10",0.0,14.3,86.4,1013.5,291.5,1.0,1.3,310.8,0.00,12.1,17.1,"21:00:08",1
"23/10/24","21:20",0.0,14.1,86.3,1013.5,304.6,1.3,2.0,311.6,0.00,11.9,16.9,"21:15:12",1
"23/10/24","21:30",0.0,14.0,86.6,1013.5,295.4,1.3,2.2,318.6,0.00,11.8,16.9,"21:27:44",1
"23/10/24","21:40",0.0,14.2,86.6,1013.5,280.8,1.2,1.7,308.3,0.00,12.0,16.9,"21:36:00",1
"23/10/24","21:50",0.0,14.2,86.5,1013.3,280.6,1.1,1.7,267.1,0.00,12.0,16.9,"21:46:24",1
"23/10/24","22:00",0.0,14.2,86.2,1013.3,305.7,1.3,1.6,304.3,0.00,12.0,16.8,"21:51:20",1
"23/10/24","22:10",0.0,13.7,86.4,1013.3,317.2,1.7,2.0,313.2,0.00,11.5,16.6,"22:02:16",1
"23/10/24","22:20",0.0,13.6,87.0,1013.5,306.8,1.5,2.2,315.7,0.00,11.5,16.7,"22:18:40",1
"23/10/24","22:30",0.0,13.8,87.4,1013.3,316.5,1.5,2.2,330.4,0.00,11.8,16.7,"22:27:44",1
"23/10/24","22:40",0.0,13.8,87.3,1013.3,290.5,1.1,2.0,315.7,0.00,11.8,16.5,"22:30:24",1
"23/10/24","22:50",0.0,13.6,87.5,1013.5,304.0,1.0,2.0,334.7,0.00,11.6,16.8,"22:44:40",1
"23/10/24","23:00",0.0,13.3,87.6,1013.0,285.6,0.8,1.8,302.3,0.00,11.3,16.6,"22:57:14",1
"23/10/24","23:10",0.0,13.0,88.0,1013.5,282.6,1.1,2.1,284.9,0.00,11.1,16.6,"23:09:58",1
"23/10/24","23:20",0.0,13.6,88.1,1013.3,300.3,1.2,3.3,333.9,0.00,11.7,16.6,"23:13:36",1
"23/10/24","23:30",0.0,13.4,88.1,1013.5,278.4,1.0,1.4,266.1,0.00,11.5,16.6,"23:25:20",1
"23/10/24","23:40",0.0,13.6,88.3,1013.0,301.6,1.3,2.6,315.0,0.00,11.7,16.5,"23:33:10",1
"23/10/24","23:50",0.0,13.4,88.3,1013.0,272.2,0.7,1.9,303.2,0.00,11.5,16.4,"23:49:44",1
"23/10/24","24:00",0.0,13.3,88.5,1013.3,311.9,1.6,2.4,318.8,0.00,11.5,16.5,"23:54:36",1
